QPF
0.02 0.03 0.02 0.03 0.03 0.03 0.03 0.03 0.05 0.05 0.05 0.04 0.03 0.03 0.03 0.04 0.03 0.02 0.02 0.02 0.02 0.01 0.01 0.06 0.05 0.02 0.01 0.01 0.02 0.04 0.05 0.05 0.03 0.04 0.05 0.06 0.06 0.06
0.04 0.04 0.04 0.03 0.03 0.03 0.03 0.02 0.03 0.04 0.05 0.05 0.03 0.01 0.02 0.02 0.02 0.02 0.03 0.03 0.01 0.01 0.01 0.03 0.10 0.06 0.02 0.02 0.02 0.03 0.05 0.05 0.04 0.04 0.04 0.04 0.04 0.04
0.05 0.05 0.06 0.06 0.05 0.05 0.03 0.03 0.03 0.02 0.03 0.04 0.04 0.02 0.01 0.01 0.02 0.02 0.03 0.02 0.02 0.01 0.01 0.01 0.04 0.11 0.07 0.03 0.02 0.03 0.04 0.05 0.04 0.03 0.04 0.03 0.02 0.03
0.06 0.06 0.07 0.07 0.05 0.05 0.04 0.03 0.03 0.03 0.02 0.03 0.03 0.03 0.02 0.03 0.03 0.03 0.03 0.02 0.01 0.00 0.00 0.00 0.01 0.04 0.10 0.07 0.03 0.02 0.04 0.05 0.06 0.05 0.04 0.04 0.02 0.02
0.05 0.06 0.07 0.07 0.05 0.04 0.03 0.02 0.02 0.02 0.02 0.02 0.03 0.04 0.03 0.03 0.04 0.04 0.03 0.02 0.01 0.00 0.00 0.00 0.01 0.01 0.03 0.07 0.07 0.03 0.02 0.03 0.05 0.08 0.07 0.05 0.03 0.02
0.04 0.05 0.06 0.06 0.06 0.05 0.03 0.02 0.02 0.02 0.02 0.02 0.02 0.02 0.03 0.03 0.03 0.04 0.03 0.02 0.02 0.01 0.01 0.01 0.01 0.01 0.01 0.03 0.06 0.07 0.04 0.02 0.03 0.04 0.06 0.08 0.05 0.03
0.04 0.04 0.05 0.05 0.07 0.06 0.03 0.02 0.03 0.03 0.02 0.01 0.01 0.01 0.02 0.02 0.02 0.03 0.04 0.03 0.04 0.02 0.02 0.02 0.01 0.01 0.01 0.02 0.03 0.06 0.07 0.04 0.02 0.03 0.04 0.04 0.04 0.04
0.04 0.04 0.05 0.06 0.08 0.06 0.04 0.03 0.03 0.03 0.02 0.02 0.02 0.01 0.01 0.02 0.03 0.03 0.03 0.04 0.03 0.02 0.02 0.02 0.02 0.02 0.01 0.02 0.04 0.04 0.04 0.06 0.05 0.04 0.05 0.03 0.02 0.02
0.03 0.03 0.03 0.05 0.09 0.06 0.04 0.04 0.02 0.01 0.02 0.03 0.03 0.02 0.02 0.02 0.04 0.05 0.04 0.05 0.04 0.03 0.04 0.03 0.03 0.02 0.02 0.04 0.04 0.03 0.03 0.04 0.05 0.05 0.05 0.03 0.02 0.01
0.02 0.02 0.02 0.03 0.06 0.05 0.04 0.04 0.03 0.02 0.02 0.02 0.02 0.03 0.03 0.03 0.03 0.04 0.05 0.05 0.04 0.04 0.05 0.04 0.03 0.04 0.05 0.04 0.04 0.03 0.04 0.06 0.05 0.05 0.05 0.05 0.05 0.04
0.01 0.01 0.01 0.02 0.04 0.03 0.04 0.04 0.05 0.04 0.03 0.03 0.02 0.03 0.02 0.02 0.02 0.03 0.03 0.03 0.03 0.04 0.05 0.05 0.05 0.05 0.06 0.05 0.04 0.04 0.04 0.05 0.07 0.08 0.08 0.07 0.07 0.07
0.01 0.01 0.02 0.02 0.03 0.03 0.04 0.05 0.04 0.04 0.05 0.05 0.04 0.03 0.02 0.01 0.01 0.01 0.02 0.03 0.02 0.04 0.05 0.05 0.05 0.05 0.07 0.07 0.06 0.04 0.04 0.04 0.03 0.05 0.06 0.09 0.11 0.10
0.01 0.02 0.02 0.02 0.02 0.03 0.04 0.05 0.04 0.05 0.06 0.05 0.05 0.04 0.03 0.02 0.01 0.02 0.02 0.03 0.03 0.03 0.04 0.05 0.04 0.05 0.05 0.05 0.05 0.05 0.04 0.03 0.03 0.04 0.05 0.06 0.08 0.09
0.02 0.02 0.02 0.02 0.02 0.02 0.03 0.03 0.05 0.06 0.05 0.04 0.04 0.03 0.03 0.03 0.02 0.02 0.02 0.02 0.03 0.04 0.05 0.05 0.05 0.05 0.05 0.03 0.03 0.03 0.03 0.03 0.03 0.04 0.05 0.05 0.06 0.06
0.03 0.03 0.03 0.03 0.03 0.02 0.03 0.04 0.05 0.06 0.05 0.04 0.04 0.03 0.02 0.02 0.03 0.04 0.04 0.02 0.02 0.02 0.03 0.04 0.05 0.05 0.05 0.04 0.03 0.03 0.02 0.02 0.03 0.04 0.04 0.04 0.05 0.05
0.03 0.04 0.03 0.03 0.03 0.03 0.03 0.05 0.06 0.05 0.04 0.04 0.03 0.03 0.02 0.03 0.04 0.04 0.04 0.03 0.03 0.03 0.03 0.03 0.04 0.04 0.04 0.03 0.04 0.04 0.04 0.04 0.05 0.05 0.05 0.05 0.05 0.05
0.04 0.04 0.03 0.03 0.03 0.03 0.03 0.04 0.06 0.05 0.03 0.02 0.03 0.03 0.03 0.03 0.03 0.04 0.04 0.04 0.04 0.05 0.04 0.03 0.04 0.04 0.03 0.03 0.03 0.05 0.06 0.07 0.06 0.06 0.06 0.05 0.05 0.04
0.04 0.05 0.06 0.06 0.05 0.05 0.05 0.05 0.05 0.05 0.04 0.04 0.04 0.05 0.06 0.05 0.04 0.04 0.05 0.04 0.04 0.04 0.04 0.04 0.03 0.03 0.03 0.04 0.04 0.04 0.06 0.07 0.08 0.07 0.07 0.05 0.04 0.04
0.02 0.02 0.04 0.05 0.05 0.04 0.03 0.03 0.03 0.04 0.04 0.05 0.06 0.07 0.07 0.09 0.08 0.06 0.05 0.05 0.04 0.04 0.04 0.04 0.04 0.04 0.04 0.04 0.04 0.04 0.05 0.05 0.06 0.07 0.06 0.05 0.04 0.04
0.01 0.02 0.03 0.03 0.03 0.03 0.03 0.02 0.03 0.03 0.03 0.04 0.05 0.05 0.06 0.07 0.07 0.08 0.07 0.05 0.04 0.04 0.04 0.03 0.03 0.04 0.05 0.05 0.05 0.04 0.04 0.04 0.04 0.04 0.04 0.04 0.04 0.04
0.01 0.01 0.02 0.02 0.03 0.03 0.03 0.02 0.03 0.03 0.04 0.05 0.05 0.05 0.06 0.06 0.06 0.06 0.06 0.06 0.06 0.05 0.05 0.05 0.05 0.05 0.05 0.04 0.04 0.04 0.04 0.04 0.04 0.03 0.02 0.02 0.03 0.03
0.02 0.01 0.02 0.02 0.02 0.02 0.03 0.03 0.04 0.04 0.04 0.05 0.05 0.06 0.06 0.06 0.06 0.06 0.06 0.06 0.06 0.05 0.06 0.07 0.06 0.05 0.05 0.04 0.03 0.02 0.03 0.02 0.02 0.02 0.03 0.02 0.02 0.02
0.02 0.03 0.03 0.03 0.02 0.02 0.03 0.04 0.03 0.03 0.04 0.05 0.05 0.06 0.06 0.06 0.06 0.06 0.08 0.08 0.08 0.07 0.06 0.07 0.06 0.05 0.05 0.04 0.03 0.02 0.02 0.01 0.01 0.01 0.02 0.02 0.02 0.02
MSLP
1016.73 1016.68 1016.64 1016.57 1016.48 1016.33 1016.15 1015.93 1015.71 1015.50 1015.33 1015.23 1015.19 1015.22 1015.31 1015.45 1015.61 1015.77 1015.92 1016.06 1016.17 1016.27 1016.35 1016.42 1016.47 1016.50 1016.50 1016.48 1016.43 1016.35 1016.27 1016.18 1016.10 1016.04 1016.01 1016.00 1016.01 1016.03
1016.87 1016.83 1016.78 1016.70 1016.60 1016.45 1016.27 1016.06 1015.84 1015.64 1015.48 1015.36 1015.30 1015.30 1015.34 1015.42 1015.51 1015.62 1015.73 1015.83 1015.93 1016.04 1016.14 1016.25 1016.35 1016.44 1016.51 1016.56 1016.57 1016.56 1016.52 1016.46 1016.41 1016.36 1016.32 1016.30 1016.28 1016.27
1016.95 1016.91 1016.87 1016.80 1016.70 1016.56 1016.40 1016.21 1016.01 1015.82 1015.65 1015.52 1015.42 1015.37 1015.34 1015.34 1015.35 1015.37 1015.41 1015.46 1015.53 1015.62 1015.73 1015.86 1016.00 1016.14 1016.28 1016.39 1016.48 1016.53 1016.56 1016.56 1016.55 1016.54 1016.52 1016.51 1016.49 1016.47
1016.96 1016.93 1016.89 1016.83 1016.75 1016.65 1016.51 1016.35 1016.18 1016.00 1015.83 1015.68 1015.55 1015.43 1015.33 1015.24 1015.16 1015.10 1015.05 1015.03 1015.05 1015.10 1015.19 1015.32 1015.48 1015.65 1015.83 1015.99 1016.14 1016.26 1016.36 1016.44 1016.50 1016.54 1016.58 1016.60 1016.61 1016.61
1016.87 1016.85 1016.82 1016.78 1016.72 1016.65 1016.55 1016.42 1016.28 1016.13 1015.96 1015.80 1015.63 1015.47 1015.30 1015.14 1014.99 1014.84 1014.72 1014.63 1014.58 1014.58 1014.63 1014.73 1014.86 1015.03 1015.22 1015.41 1015.60 1015.78 1015.94 1016.09 1016.23 1016.35 1016.46 1016.55 1016.61 1016.64
1016.68 1016.65 1016.62 1016.60 1016.57 1016.53 1016.46 1016.38 1016.27 1016.13 1015.99 1015.82 1015.64 1015.45 1015.25 1015.04 1014.83 1014.63 1014.45 1014.30 1014.18 1014.12 1014.11 1014.15 1014.24 1014.37 1014.52 1014.70 1014.90 1015.11 1015.32 1015.54 1015.76 1015.97 1016.16 1016.33 1016.47 1016.56
1016.37 1016.32 1016.30 1016.28 1016.27 1016.26 1016.23 1016.17 1016.09 1015.99 1015.86 1015.71 1015.54 1015.34 1015.13 1014.91 1014.69 1014.46 1014.25 1014.05 1013.89 1013.76 1013.68 1013.65 1013.66 1013.71 1013.81 1013.95 1014.12 1014.33 1014.57 1014.84 1015.12 1015.42 1015.70 1015.96 1016.17 1016.34
1015.93 1015.88 1015.85 1015.84 1015.85 1015.85 1015.84 1015.81 1015.76 1015.68 1015.58 1015.45 1015.29 1015.12 1014.93 1014.73 1014.51 1014.30 1014.08 1013.86 1013.67 1013.49 1013.34 1013.23 1013.15 1013.12 1013.13 1013.20 1013.33 1013.52 1013.76 1014.05 1014.39 1014.74 1015.10 1015.44 1015.74 1015.98
1015.40 1015.34 1015.31 1015.31 1015.33 1015.34 1015.35 1015.33 1015.30 1015.23 1015.15 1015.04 1014.91 1014.77 1014.62 1014.46 1014.28 1014.09 1013.89 1013.68 1013.47 1013.26 1013.06 1012.87 1012.71 1012.59 1012.51 1012.51 1012.58 1012.72 1012.95 1013.25 1013.61 1014.00 1014.42 1014.81 1015.17 1015.48
1014.81 1014.75 1014.73 1014.75 1014.77 1014.79 1014.80 1014.79 1014.76 1014.70 1014.62 1014.53 1014.42 1014.32 1014.20 1014.08 1013.95 1013.80 1013.64 1013.45 1013.24 1013.01 1012.77 1012.53 1012.31 1012.12 1011.97 1011.90 1011.91 1012.01 1012.21 1012.49 1012.85 1013.25 1013.68 1014.11 1014.50 1014.85
1014.20 1014.17 1014.17 1014.20 1014.23 1014.25 1014.26 1014.24 1014.20 1014.13 1014.05 1013.96 1013.87 1013.78 1013.69 1013.61 1013.52 1013.41 1013.28 1013.12 1012.92 1012.70 1012.45 1012.19 1011.93 1011.70 1011.51 1011.39 1011.36 1011.42 1011.58 1011.83 1012.16 1012.54 1012.95 1013.36 1013.75 1014.10
1013.63 1013.63 1013.65 1013.70 1013.73 1013.76 1013.76 1013.72 1013.66 1013.57 1013.48 1013.37 1013.28 1013.20 1013.13 1013.06 1013.00 1012.92 1012.82 1012.68 1012.51 1012.30 1012.06 1011.81 1011.55 1011.32 1011.12 1010.99 1010.94 1010.98 1011.10 1011.31 1011.58 1011.91 1012.26 1012.62 1012.97 1013.28
1013.12 1013.15 1013.19 1013.25 1013.29 1013.31 1013.29 1013.24 1013.15 1013.04 1012.93 1012.81 1012.70 1012.62 1012.55 1012.49 1012.43 1012.37 1012.29 1012.17 1012.03 1011.84 1011.63 1011.41 1011.18 1010.97 1010.80 1010.69 1010.64 1010.66 1010.75 1010.91 1011.12 1011.37 1011.64 1011.91 1012.18 1012.43
1012.67 1012.72 1012.78 1012.83 1012.87 1012.87 1012.84 1012.77 1012.66 1012.54 1012.40 1012.27 1012.16 1012.06 1011.99 1011.93 1011.88 1011.82 1011.74 1011.64 1011.51 1011.36 1011.18 1011.00 1010.82 1010.66 1010.54 1010.46 1010.43 1010.45 1010.52 1010.63 1010.77 1010.93 1011.09 1011.26 1011.42 1011.58
1012.28 1012.33 1012.38 1012.42 1012.44 1012.42 1012.37 1012.28 1012.16 1012.03 1011.90 1011.77 1011.66 1011.57 1011.50 1011.44 1011.38 1011.32 1011.24 1011.15 1011.03 1010.89 1010.75 1010.61 1010.48 1010.37 1010.30 1010.26 1010.26 1010.30 1010.35 1010.42 1010.49 1010.56 1010.62 1010.67 1010.73 1010.79
1011.93 1011.94 1011.97 1011.98 1011.97 1011.93 1011.86 1011.76 1011.65 1011.52 1011.41 1011.30 1011.22 1011.15 1011.09 1011.05 1010.99 1010.93 1010.85 1010.74 1010.62 1010.49 1010.36 1010.25 1010.15 1010.09 1010.06 1010.06 1010.09 1010.13 1010.17 1010.21 1010.23 1010.22 1010.19 1010.15 1010.12 1010.10
1011.60 1011.57 1011.55 1011.52 1011.46 1011.40 1011.31 1011.22 1011.12 1011.03 1010.95 1010.89 1010.85 1010.83 1010.81 1010.78 1010.73 1010.67 1010.58 1010.45 1010.32 1010.17 1010.03 1009.92 1009.83 1009.78 1009.77 1009.79 1009.84 1009.89 1009.93 1009.94 1009.93 1009.88 1009.80 1009.70 1009.61 1009.54
1011.31 1011.23 1011.16 1011.07 1010.98 1010.88 1010.79 1010.70 1010.63 1010.58 1010.56 1010.57 1010.59 1010.62 1010.64 1010.64 1010.61 1010.54 1010.43 1010.28 1010.10 1009.92 1009.74 1009.60 1009.49 1009.42 1009.40 1009.42 1009.47 1009.52 1009.56 1009.57 1009.55 1009.49 1009.40 1009.29 1009.19 1009.12
1011.09 1010.96 1010.84 1010.71 1010.58 1010.47 1010.37 1010.30 1010.26 1010.26 1010.30 1010.36 1010.45 1010.53 1010.59 1010.62 1010.60 1010.51 1010.37 1010.18 1009.95 1009.71 1009.47 1009.26 1009.10 1008.99 1008.94 1008.93 1008.96 1009.01 1009.05 1009.08 1009.08 1009.05 1008.99 1008.92 1008.86 1008.83
1010.95 1010.80 1010.65 1010.50 1010.35 1010.23 1010.14 1010.08 1010.08 1010.12 1010.20 1010.31 1010.44 1010.56 1010.65 1010.69 1010.65 1010.55 1010.36 1010.11 1009.82 1009.50 1009.19 1008.90 1008.67 1008.50 1008.39 1008.34 1008.35 1008.39 1008.44 1008.49 1008.52 1008.54 1008.55 1008.55 1008.57 1008.62
1010.92 1010.77 1010.62 1010.47 1010.34 1010.22 1010.14 1010.11 1010.13 1010.19 1010.30 1010.44 1010.58 1010.70 1010.79 1010.81 1010.74 1010.59 1010.35 1010.04 1009.67 1009.28 1008.89 1008.53 1008.22 1007.98 1007.81 1007.73 1007.70 1007.72 1007.78 1007.85 1007.93 1008.02 1008.10 1008.19 1008.30 1008.45
1010.98 1010.87 1010.76 1010.64 1010.53 1010.45 1010.39 1010.38 1010.41 1010.48 1010.59 1010.71 1010.84 1010.93 1010.97 1010.94 1010.82 1010.61 1010.31 1009.93 1009.50 1009.04 1008.59 1008.16 1007.80 1007.50 1007.29 1007.16 1007.10 1007.11 1007.17 1007.26 1007.38 1007.51 1007.66 1007.82 1008.02 1008.24
1011.09 1011.05 1011.00 1010.94 1010.89 1010.85 1010.83 1010.84 1010.87 1010.93 1011.01 1011.10 1011.16 1011.19 1011.16 1011.06 1010.87 1010.59 1010.22 1009.79 1009.31 1008.80 1008.31 1007.85 1007.46 1007.13 1006.89 1006.74 1006.66 1006.65 1006.70 1006.79 1006.91 1007.06 1007.24 1007.45 1007.68 1007.96
Thickness
5729 5728 5727 5728 5727 5726 5725 5722 5717 5713 5714 5716 5716 5718 5716 5715 5712 5712 5712 5710 5709 5708 5708 5708 5708 5708 5708 5708 5708 5707 5706 5705 5705 5704 5703 5702 5701 5700
5723 5721 5721 5723 5723 5722 5721 5720 5718 5714 5710 5713 5712 5713 5710 5710 5707 5706 5706 5705 5704 5703 5703 5703 5703 5703 5703 5703 5703 5703 5702 5701 5700 5699 5699 5698 5697 5697
5719 5717 5716 5715 5716 5716 5715 5714 5713 5711 5705 5706 5708 5707 5703 5702 5702 5701 5702 5701 5701 5699 5698 5698 5698 5698 5698 5698 5698 5698 5697 5697 5696 5695 5695 5694 5693 5692
5714 5713 5711 5711 5709 5709 5709 5708 5707 5705 5702 5698 5699 5700 5697 5696 5695 5695 5697 5698 5697 5696 5694 5694 5693 5693 5693 5693 5692 5692 5692 5692 5692 5691 5691 5690 5689 5688
5710 5708 5707 5706 5703 5703 5702 5702 5702 5701 5698 5696 5694 5693 5692 5691 5689 5690 5692 5691 5693 5693 5691 5690 5689 5688 5688 5688 5688 5687 5687 5687 5687 5686 5686 5685 5684 5683
5705 5704 5703 5701 5699 5697 5696 5695 5695 5693 5692 5691 5690 5689 5687 5686 5684 5684 5685 5686 5687 5689 5688 5687 5686 5685 5685 5684 5684 5683 5683 5682 5682 5681 5680 5679 5679 5678
5700 5699 5698 5697 5695 5693 5693 5691 5689 5688 5687 5687 5686 5684 5682 5680 5680 5681 5680 5681 5682 5684 5684 5685 5685 5684 5683 5681 5680 5679 5678 5678 5677 5676 5675 5674 5674 5673
5694 5694 5694 5692 5690 5687 5685 5684 5683 5682 5682 5681 5681 5680 5678 5678 5677 5676 5676 5675 5675 5680 5678 5679 5681 5681 5681 5681 5678 5676 5674 5674 5673 5672 5671 5670 5669 5668
5689 5689 5690 5690 5686 5684 5681 5679 5678 5677 5675 5676 5676 5675 5675 5675 5672 5671 5670 5670 5671 5674 5673 5674 5676 5676 5677 5677 5674 5672 5670 5669 5668 5667 5666 5665 5664 5664
5685 5685 5683 5683 5682 5678 5677 5676 5676 5675 5673 5671 5672 5672 5671 5670 5669 5668 5667 5666 5668 5669 5669 5667 5670 5671 5673 5672 5669 5667 5665 5664 5664 5663 5662 5661 5660 5660
5681 5680 5679 5677 5674 5671 5670 5670 5670 5670 5669 5667 5667 5666 5664 5663 5663 5663 5663 5663 5663 5665 5666 5664 5665 5665 5666 5667 5665 5662 5661 5660 5660 5659 5658 5657 5656 5655
5677 5676 5673 5671 5668 5665 5665 5665 5664 5665 5664 5663 5661 5660 5660 5660 5658 5658 5660 5659 5660 5660 5662 5660 5660 5659 5658 5661 5661 5659 5657 5656 5655 5655 5655 5653 5652 5652
5672 5672 5671 5665 5662 5660 5659 5660 5659 5658 5659 5658 5658 5658 5659 5658 5658 5658 5657 5657 5656 5657 5658 5655 5655 5655 5654 5654 5655 5655 5655 5654 5652 5651 5651 5650 5648 5648
5664 5665 5664 5658 5656 5654 5655 5654 5652 5651 5654 5654 5654 5655 5656 5657 5657 5656 5654 5653 5652 5652 5652 5650 5650 5649 5649 5648 5648 5650 5650 5650 5650 5649 5649 5646 5644 5643
5657 5656 5653 5651 5650 5651 5649 5648 5647 5648 5649 5649 5650 5651 5653 5654 5653 5651 5649 5648 5647 5647 5647 5645 5645 5645 5644 5644 5645 5645 5645 5646 5646 5645 5645 5644 5643 5641
5650 5649 5647 5645 5645 5645 5645 5644 5644 5645 5645 5645 5647 5648 5648 5648 5647 5648 5646 5645 5643 5643 5643 5642 5640 5640 5639 5640 5640 5640 5641 5640 5641 5641 5640 5640 5640 5639
5641 5643 5645 5644 5644 5644 5643 5642 5641 5640 5640 5641 5641 5642 5642 5642 5642 5643 5641 5640 5639 5639 5638 5638 5638 5636 5636 5636 5636 5637 5637 5636 5636 5635 5634 5634 5635 5635
5633 5638 5639 5639 5639 5639 5638 5638 5637 5636 5635 5635 5635 5636 5636 5636 5636 5637 5636 5635 5635 5635 5635 5634 5633 5631 5631 5632 5632 5632 5632 5631 5630 5630 5630 5629 5629 5630
5630 5634 5634 5633 5633 5633 5633 5634 5633 5632 5631 5630 5631 5632 5632 5631 5630 5630 5630 5630 5629 5629 5630 5630 5629 5628 5626 5626 5628 5626 5627 5626 5626 5625 5625 5625 5625 5625
5629 5630 5630 5628 5628 5628 5629 5629 5629 5628 5627 5627 5627 5627 5627 5627 5626 5625 5625 5625 5624 5624 5624 5625 5626 5624 5622 5622 5622 5624 5620 5621 5621 5620 5620 5620 5620 5618
5626 5627 5626 5625 5624 5623 5623 5623 5622 5622 5622 5622 5622 5622 5622 5622 5622 5622 5621 5618 5619 5620 5619 5620 5620 5618 5618 5617 5617 5618 5618 5614 5615 5614 5614 5615 5614 5614
5621 5621 5621 5620 5619 5619 5617 5617 5617 5617 5616 5617 5618 5618 5618 5618 5617 5617 5616 5616 5615 5616 5616 5616 5615 5614 5613 5612 5612 5613 5613 5611 5608 5607 5607 5608 5609 5610
5616 5616 5616 5615 5614 5613 5613 5612 5612 5612 5612 5613 5613 5613 5613 5613 5612 5612 5611 5611 5610 5611 5611 5610 5610 5609 5610 5610 5610 5610 5609 5609 5608 5606 5604 5602 5602 5602